This demonstration page uses our WeatherBlox Daily Observations layout. Learn more.

Left ArrowRight Arrow

Hourly Observations for November 26, 2018

Temp ( °F °C ) Dew Point ( °F °C ) Humidity (%) Winds ( mph kmh ) Pressure ( in mb ) Visibility ( mi km ) Precip ( " mm )
12:52 am 00:52 Mostly Clear 21 -6.1 12 -11.1 68 68 NNW 18 30 30.20 1023 10 16 0.00 0.00
1:52 am 01:52 Mostly Cloudy 21 -6.1 12 -11.1 68 68 NNW 16 26 30.21 1023 10 16 0.00 0.00
2:52 am 02:52 Mostly Cloudy 20 -6.7 12 -11.1 71 71 NNW 15 24 30.22 1023 10 16 0.00 0.00
3:52 am 03:52 Mostly Cloudy 20 -6.7 12 -11.1 71 71 NNW 13 20 30.22 1023 10 16 0.00 0.00
4:52 am 04:52 Partly Cloudy 19 -7.2 12 -11.1 74 74 NNW 14 22 30.22 1023 10 16 0.00 0.00
5:52 am 05:52 Mostly Clear 19 -7.2 11 -11.7 71 71 NNW 15 24 30.22 1023 10 16 0.00 0.00
6:52 am 06:52 Mostly Clear 19 -7.2 11 -11.7 71 71 NNW 16 26 30.22 1024 10 16 0.00 0.00
7:52 am 07:52 Mostly Sunny 19 -7.2 11 -11.7 71 71 NNW 15 24 30.24 1024 10 16 0.00 0.00
8:52 am 08:52 Partly Cloudy 21 -6.1 12 -11.1 68 68 NNW 20 31 30.26 1025 10 16 0.00 0.00
9:52 am 09:52 Mostly Cloudy 23 -5 14 -10 68 68 NNW 17 28 30.27 1025 10 16 0.00 0.00
10:31 am 10:31 Mostly Cloudy 24 -4.4 15 -9.4 68 68 NNW 22 35 30.33 1027 10 16 0.00 0.00
10:52 am 10:52 Mostly Cloudy 25 -3.9 16 -8.9 69 69 NW 21 33 30.27 1025 10 16 0.00 0.00
11:27 am 11:27 Mostly Cloudy 25 -3.9 15 -9.4 66 66 NNW 20 31 30.30 1026 10 16 0.00 0.00
11:52 am 11:52 Mostly Cloudy 25 -3.9 14 -10 63 63 NNW 17 28 30.26 1025 10 16 0.00 0.00
12:52 pm 12:52 Partly Cloudy 26 -3.3 15 -9.4 63 63 NNW 17 28 30.25 1025 10 16 0.00 0.00
1:52 pm 13:52 Partly Cloudy 28 -2.2 16 -8.9 60 60 NNW 15 24 30.24 1024 10 16 0.00 0.00
2:52 pm 14:52 Partly Cloudy 30 -1.1 17 -8.3 58 58 NW 15 24 30.23 1024 10 16 0.00 0.00
3:52 pm 15:52 Partly Cloudy 28 -2.2 14 -10 56 56 NW 18 30 30.24 1024 10 16 0.00 0.00
4:52 pm 16:52 Partly Cloudy 25 -3.9 14 -10 63 63 NW 13 20 30.25 1024 10 16 0.00 0.00
5:52 pm 17:52 Partly Cloudy 24 -4.4 15 -9.4 68 68 NW 13 20 30.24 1024 10 16 0.00 0.00
6:52 pm 18:52 Cloudy 26 -3.3 16 -8.9 66 66 NW 10 17 30.25 1024 10 16 0.00 0.00
7:52 pm 19:52 Cloudy 25 -3.9 14 -10 63 63 NNW 13 20 30.24 1024 10 16 0.00 0.00
8:52 pm 20:52 Partly Cloudy 23 -5 12 -11.1 63 63 NNW 14 22 30.25 1024 10 16 0.00 0.00
9:52 pm 21:52 Partly Cloudy 20 -6.7 10 -12.2 65 65 NNW 12 19 30.26 1025 10 16 0.00 0.00
10:52 pm 22:52 Mostly Cloudy 19 -7.2 8 -13.3 62 62 NNW 14 22 30.25 1024 10 16 0.00 0.00
11:52 pm 23:52 Partly Cloudy 18 -7.8 8 -13.3 65 65 NNW 10 17 30.25 1024 10 16 0.00 0.00

Powered by AerisWeather